Weather History for KMZZ - October, 2013

Change the Weather History Date:

Tuesday, October 1, 2013

  Actual Average (KMIE) Record (KMIE)
Temperature  
Mean Temperature 64 °F 59 °F  
Max Temperature 73 °F 71 °F 90 °F (1971)
Min Temperature 56 °F 48 °F 26 °F (1993)
Degree Days  
Heating Degree Days 0 7  
Month to date heating degree days 7  
Since 1 July heating degree days 108  
Cooling Degree Days 0 1  
Month to date cooling degree days 1  
Year to date cooling degree days 940  
Growing Degree Days 14 (Base 50)    
Moisture  
Dew Point 59 °F    
Average Humidity 85    
Maximum Humidity 99    
Minimum Humidity 58    
Precipitation  
Precipitation 0.00 in 0.10 in 2.24 in (1977)
Month to date precipitation 0.10  
Year to date precipitation 30.97  
Sea Level Pressure  
Sea Level Pressure 30.03 in    
Wind  
Wind Speed 7 mph (SW)    
Max Wind Speed 16 mph    
Max Gust Speed 21 mph    
Visibility 6 miles    
Events Fog    
T = Trace of Precipitation, MM = Missing Value Source: NWS Daily Summary

Daily Weather History Graph

Daily Weather History Graph

Search for Another Location

Airport or City:

Trip Planner

Search our weather history database for the weather conditions in past years. The results will help you decide how hot, cold, wet, or windy it might be!

Date:

Astronomy

Oct. 01, 2013 Rise Set
Actual Time 7:39 AM EDT 7:24 PM EDT
Civil Twilight 7:12 AM EDT 7:51 PM EDT
Nautical Twilight 6:40 AM EDT 8:23 PM EDT
Astronomical Twilight 6:08 AM EDT 8:55 PM EDT
Moon 4:12 AM EDT (10/1) 5:28 PM EDT (10/1)
Length of Visible Light 12h 39m
Length of Day
11h 45m
Waning Crescent, 12% of the Moon is Illuminated
Oct 1
Waning Crescent
Oct 4
New
Oct 11
First Quarter
Oct 18
Full
Oct 26
Last Quarter

Hourly Weather History & Observations

Time (EDT) Temp. Dew Point Humidity Pressure Visibility Wind Dir Wind Speed Gust Speed Precip Events Conditions
12:15 AM 60.6 °F 59.2 °F 95% 30.00 in 4.0 mi SSW 8.1 mph - N/A   Clear
12:35 AM 60.3 °F 59.2 °F 96% 30.00 in 4.0 mi SSW 6.9 mph - N/A   Clear
12:55 AM 59.9 °F 59.0 °F 97% 30.00 in 3.0 mi SSW 5.8 mph - N/A   Clear
1:15 AM 59.7 °F 58.8 °F 97% 30.00 in 3.0 mi SSW 5.8 mph - N/A   Clear
1:35 AM 59.5 °F 59.0 °F 98% 30.00 in 3.0 mi SSW 5.8 mph - N/A   Clear
1:55 AM 59.2 °F 58.5 °F 97% 30.00 in 2.5 mi SSW 4.6 mph - N/A   Clear
2:15 AM 58.6 °F 58.1 °F 98% 30.00 in 3.0 mi SSW 4.6 mph - N/A   Clear
2:35 AM 58.3 °F 57.7 °F 98% 30.01 in 2.5 mi SSW 4.6 mph - N/A   Clear
2:55 AM 58.1 °F 57.6 °F 98% 30.01 in 2.5 mi SSW 4.6 mph - N/A   Clear
3:15 AM 57.7 °F 57.4 °F 99% 30.01 in 2.5 mi SSW 4.6 mph - N/A   Clear
3:35 AM 57.7 °F 57.4 °F 99% 30.00 in 2.5 mi South 4.6 mph - N/A   Clear
3:55 AM 58.5 °F 58.1 °F 99% 30.01 in 3.0 mi South 3.5 mph - N/A   Clear
4:15 AM 58.1 °F 57.7 °F 99% 30.01 in 2.5 mi South 4.6 mph - N/A   Clear
4:35 AM 57.9 °F 57.4 °F 98% 30.01 in 2.5 mi South 4.6 mph - N/A   Clear
4:55 AM 57.2 °F 56.8 °F 99% 30.01 in 1.5 mi SSW 4.6 mph - N/A   Mist
5:15 AM 56.5 °F 56.3 °F 99% 30.01 in 0.5 mi SSW 4.6 mph - N/A Fog Fog
5:35 AM 57.4 °F 57.0 °F 99% 30.02 in 2.0 mi SSW 4.6 mph - N/A   Overcast
5:55 AM 58.5 °F 58.1 °F 99% 30.02 in 2.5 mi SSW 4.6 mph - N/A   Overcast
6:15 AM 59.2 °F 58.8 °F 99% 30.03 in 2.5 mi SSW 4.6 mph - N/A   Overcast
6:35 AM 59.5 °F 59.2 °F 99% 30.03 in 2.0 mi SSW 6.9 mph - N/A   Mostly Cloudy
6:55 AM 59.2 °F 58.8 °F 99% 30.03 in 2.5 mi SSW 4.6 mph - N/A   Clear
7:15 AM 59.0 °F 58.5 °F 98% 30.04 in 2.5 mi SSW 5.8 mph - N/A   Clear
7:35 AM 58.5 °F 58.1 °F 99% 30.04 in 1.0 mi SSW 4.6 mph - N/A   Mist
7:55 AM 57.9 °F 57.6 °F 99% 30.05 in 0.8 mi SSW 4.6 mph - N/A   Mostly Cloudy
8:15 AM 58.3 °F 57.7 °F 98% 30.06 in 1.0 mi SW 3.5 mph - N/A   Overcast
8:35 AM 59.9 °F 59.5 °F 99% 30.06 in 1.5 mi SW 5.8 mph - N/A   Overcast
8:55 AM 60.8 °F 60.4 °F 99% 30.06 in 1.8 mi SW 9.2 mph - N/A   Overcast
9:15 AM 61.3 °F 61.0 °F 99% 30.06 in 2.5 mi WSW 9.2 mph - N/A   Overcast
9:35 AM 61.9 °F 61.5 °F 99% 30.06 in 4.0 mi SW 6.9 mph - N/A   Overcast
9:55 AM 62.4 °F 61.5 °F 97% 30.07 in 4.0 mi WSW 10.4 mph - N/A   Overcast
10:15 AM 62.8 °F 61.5 °F 96% 30.07 in 4.0 mi WSW 10.4 mph - N/A   Overcast
10:35 AM 63.1 °F 61.7 °F 95% 30.07 in 5.0 mi SW 10.4 mph - N/A   Overcast
10:55 AM 64.0 °F 61.9 °F 93% 30.07 in 5.0 mi SW 10.4 mph - N/A   Overcast
11:15 AM 64.6 °F 61.9 °F 91% 30.07 in 7.0 mi WSW 11.5 mph - N/A   Overcast
11:35 AM 64.9 °F 61.9 °F 90% 30.07 in 7.0 mi WSW 8.1 mph - N/A   Overcast
11:55 AM 65.5 °F 61.7 °F 88% 30.06 in 7.0 mi SW 9.2 mph - N/A   Overcast
12:15 PM 66.4 °F 61.9 °F 85% 30.06 in 7.0 mi WSW 11.5 mph - N/A   Overcast
12:35 PM 66.9 °F 61.5 °F 83% 30.05 in 7.0 mi SW 10.4 mph - N/A   Overcast
12:55 PM 68.0 °F 61.7 °F 80% 30.05 in 7.0 mi SW 10.4 mph - N/A   Overcast
1:15 PM 68.5 °F 61.3 °F 78% 30.05 in 7.0 mi WSW 10.4 mph - N/A   Overcast
1:35 PM 68.9 °F 61.0 °F 76% 30.05 in 10.0 mi SW 9.2 mph - N/A   Overcast
1:55 PM 69.4 °F 60.8 °F 74% 30.05 in 10.0 mi WSW 11.5 mph - N/A   Overcast
2:15 PM 69.8 °F 60.6 °F 73% 30.05 in 7.0 mi WSW 13.8 mph - N/A   Overcast
2:35 PM 70.5 °F 59.7 °F 69% 30.04 in 10.0 mi SW 16.1 mph - N/A   Overcast
2:55 PM 71.4 °F 58.3 °F 63% 30.04 in 7.0 mi SW 15.0 mph 20.7 mph N/A   Overcast
3:15 PM 71.8 °F 58.6 °F 63% 30.04 in 10.0 mi SW 11.5 mph 16.1 mph N/A   Overcast
3:35 PM 72.1 °F 58.6 °F 62% 30.04 in 7.0 mi SW 12.7 mph - N/A   Overcast
3:55 PM 72.1 °F 58.3 °F 62% 30.03 in 5.0 mi SW 15.0 mph - N/A   Haze
4:15 PM 72.3 °F 58.3 °F 61% 30.02 in 7.0 mi WSW 11.5 mph - N/A   Overcast
4:35 PM 72.9 °F 58.5 °F 60% 30.02 in 7.0 mi SSW 10.4 mph - N/A   Mostly Cloudy
4:55 PM 73.4 °F 58.8 °F 60% 30.02 in 10.0 mi SW 11.5 mph - N/A   Scattered Clouds
5:15 PM 73.0 °F 58.3 °F 60% 30.01 in 7.0 mi SSW 10.4 mph - N/A   Mostly Cloudy
5:35 PM 73.2 °F 58.3 °F 59% 30.01 in 7.0 mi SW 9.2 mph - N/A   Mostly Cloudy
5:55 PM 73.4 °F 58.1 °F 59% 30.01 in 10.0 mi SW 11.5 mph - N/A   Scattered Clouds
6:15 PM 73.6 °F 57.7 °F 58% 30.01 in 10.0 mi SW 8.1 mph 16.1 mph N/A   Scattered Clouds
6:35 PM 72.9 °F 57.9 °F 59% 30.01 in 10.0 mi SSW 9.2 mph - N/A   Clear
6:55 PM 71.6 °F 58.3 °F 63% 30.01 in 10.0 mi SSW 9.2 mph - N/A   Clear
7:15 PM 70.0 °F 58.3 °F 66% 30.01 in 7.0 mi SSW 5.8 mph - N/A   Clear
7:35 PM 67.8 °F 58.1 °F 71% 30.01 in 7.0 mi South 4.6 mph - N/A   Clear
7:55 PM 66.9 °F 58.1 °F 73% 30.01 in 10.0 mi South 5.8 mph - N/A   Clear
8:15 PM 66.0 °F 58.1 °F 76% 30.01 in 10.0 mi South 4.6 mph - N/A   Clear
8:35 PM 64.9 °F 57.9 °F 78% 30.01 in 10.0 mi SSW 6.9 mph - N/A   Clear
8:55 PM 65.5 °F 58.3 °F 77% 30.02 in 10.0 mi South 4.6 mph - N/A   Clear
9:15 PM 64.4 °F 57.9 °F 79% 30.02 in 7.0 mi South 5.8 mph - N/A   Clear
9:35 PM 64.2 °F 58.1 °F 80% 30.02 in 10.0 mi South 4.6 mph - N/A   Clear
9:55 PM 63.9 °F 58.1 °F 81% 30.02 in 10.0 mi South 6.9 mph - N/A   Clear
10:15 PM 64.0 °F 58.1 °F 81% 30.02 in 7.0 mi South 6.9 mph - N/A   Clear
10:35 PM 64.4 °F 58.1 °F 80% 30.03 in 10.0 mi SSW 6.9 mph - N/A   Clear
10:55 PM 63.7 °F 58.1 °F 82% 30.03 in 10.0 mi SSW 5.8 mph - N/A   Clear
11:15 PM 63.0 °F 58.8 °F 86% 30.03 in 10.0 mi SW 5.8 mph - N/A   Clear
11:35 PM 63.1 °F 59.5 °F 88% 30.03 in 10.0 mi SW 6.9 mph - N/A   Clear
11:55 PM 63.5 °F 59.9 °F 88% 30.03 in 10.0 mi SSW 6.9 mph - N/A   Clear